Regional Weather Roundup
Issued by NWS

Home | Current Version | Previous Version | Text Only | Print | Product List | Glossary Off
Versions: 1 2 3 4 5 6 7 8 9 10 11 12 13 14 15 16 17 18 19 20 21 22 23 24 25 26 27

000
ASUS45 KCYS 271210
RWRWY

WYOMING REGIONAL WEATHER ROUNDUP
NATIONAL WEATHER SERVICE CHEYENNE WY
500 AM MST MON FEB 27 2017

NOTE:  "FAIR" INDICATES FEW OR NO CLOUDS BELOW 12,000 FEET
WITH NO SIGNIFICANT WEATHER AND/OR OBSTRUCTIONS TO VISIBILITY.

WYZ001-271300-
YELLOWSTONE NATIONAL PARK

CITY           SKY/WX    TMP DP  RH WIND       PRES   REMARKS
LK YELLOWSTONE   N/A      4   3  96 CALM      29.49S
6HR MIN TEMP:   4; 6HR MAX TEMP:  10; 6HR PCP:  0.04;

W YELLOWSTONE  NOT AVBL

$$
WYZ002>013-054>058-071-098>099-271300-
NORTHERN WYOMING

CITY           SKY/WX    TMP DP  RH WIND       PRES   REMARKS
JACKSON        CLOUDY    16  14  93 SW10      29.53S WCI   3
CODY           FAIR      19  11  70 NE3       29.54R
GREYBULL         N/A     23  12  62 CALM      29.57S
6HR MIN TEMP:  22; 6HR MAX TEMP:  28;

WORLAND        FAIR      19  12  74 CALM      29.55F
6HR MIN TEMP:  17; 6HR MAX TEMP:  23;

SHERIDAN       FAIR      17   7  64 S10       29.55S WCI   5
6HR MIN TEMP:  15; 6HR MAX TEMP:  25;

BUFFALO        FAIR      26   5  40 W21       29.53S WCI  12
6HR MIN TEMP:  16; 6HR MAX TEMP:  26;

GILLETTE       FAIR      19  10  68 CALM      29.56F
6HR MIN TEMP:  19; 6HR MAX TEMP:  25;

HULETT         FAIR      27  10  50 S7        29.58F WCI  19
NEWCASTLE      FAIR      23   7  50 CALM      29.63F

$$
WYZ014>020-022>026-101>103-271300-
CENTRAL WYOMING

CITY           SKY/WX    TMP DP  RH WIND       PRES   REMARKS
BIG PINEY      LGT SNOW  10   7  87 N3        29.55S
6HR MIN TEMP:   6; 6HR MAX TEMP:  10; 6HR PCP:  0.07;

PINEDALE       LGT SNOW  12  10  92 W3        29.54F
DUBOIS         CLOUDY    12   7  79 SE3       29.49S
LANDER         LGT SNOW  14   6  70 W6        29.55S WCI   5
6HR MIN TEMP:   8; 6HR MAX TEMP:  15;

RIVERTON       CLOUDY    12   7  80 NW8       29.55S WCI   0
6HR MIN TEMP:   4; 6HR MAX TEMP:  13;

CASPER         CLOUDY    23  13  65 SW10      29.56F WCI  12
6HR MIN TEMP:  17; 6HR MAX TEMP:  24;

DOUGLAS        CLOUDY    24  13  62 CALM      29.62F
6HR MIN TEMP:  15; 6HR MAX TEMP:  26;


$$
WYZ021-027>030-104>119-271300-
SOUTHERN WYOMING

CITY           SKY/WX    TMP DP  RH WIND       PRES   REMARKS
EVANSTON       LGT SNOW  24  21  88 SW18      29.53R FOG     WCI  10
6HR MIN TEMP:  19; 6HR MAX TEMP:  25; 6HR PCP: TRACE;

FORT BRIDGER   PTSUNNY   15   9  76 S7        29.55F WCI   5
ROCK SPRINGS   MOCLDY    23  13  65 SW16      29.52F WCI  10
6HR MIN TEMP:  10; 6HR MAX TEMP:  23;

DIXON            N/A     29  18  63 S17G25    29.65S WCI  18
RAWLINS        CLOUDY    27  14  58 SW22G36   29.55S WCI  13
6HR MIN TEMP:  11; 6HR MAX TEMP:  27;

SARATOGA       PTSUNNY   27  18  69 S12G21    29.60S WCI  16
LARAMIE        FAIR      20   9  62 S10       29.59F WCI   9
6HR MIN TEMP:  16; 6HR MAX TEMP:  22;

CHEYENNE       FAIR       8   2  76 W7        29.63F WCI  -3
6HR MIN TEMP:   6; 6HR MAX TEMP:  15;

TORRINGTON     FAIR       9   3  77 NE13      29.67F WCI  -7
6HR MIN TEMP:   8; 6HR MAX TEMP:  19;

PINE BLUFFS    FAIR      10   5  79 W7        29.68F WCI   0

$$




USA.gov is the U.S. government's official web portal to all federal, state and local government web resources and services.